RYR70NQ LGTS-LCPH

Flight info

Callsign RYR70NQ
Flight time 1h 35m
Altitude 37000
Route LEKPO1E LEKPO UL617 KEA UL995 RDS UM601 EVENO M601 DASNI M32 TOBAL W195 PHA DCT
Aircraft B38M/M-SDE1FGHILORVWXY/HB1

Departure

Time 2026-05-04 13:15
Airport Thessaloniki Macedonia International Airport (LGTS)

Arrival

Time 2026-05-04 14:51
Airport Paphos International Airport (LCPH)
Time Latitude Longitude Altitude Speed Heading
2026-05-04 12:43 40.52457 22.97389 31 ft 0 kts 45°
2026-05-04 13:06 40.52452 22.97383 31 ft 4 kts 45°
2026-05-04 13:06 40.52435 22.97360 31 ft 2 kts 45°
2026-05-04 13:06 40.52418 22.97339 31 ft 4 kts 41°
2026-05-04 13:07 40.52401 22.97314 31 ft 4 kts 72°
2026-05-04 13:07 40.52397 22.97291 31 ft 1 kts 76°
2026-05-04 13:07 40.52397 22.97290 31 ft 2 kts 76°
2026-05-04 13:10 40.52400 22.97309 31 ft 5 kts 76°
2026-05-04 13:11 40.52395 22.97360 31 ft 7 kts 128°
2026-05-04 13:11 40.52355 22.97414 31 ft 10 kts 135°
2026-05-04 13:11 40.52301 22.97484 31 ft 12 kts 135°
2026-05-04 13:11 40.52234 22.97571 31 ft 14 kts 135°
2026-05-04 13:12 40.52156 22.97653 31 ft 14 kts 148°
2026-05-04 13:12 40.52080 22.97744 31 ft 16 kts 135°
2026-05-04 13:12 40.52004 22.97848 31 ft 14 kts 122°
2026-05-04 13:12 40.51975 22.97984 31 ft 17 kts 104°
2026-05-04 13:13 40.51944 22.98143 31 ft 19 kts 104°
2026-05-04 13:13 40.51912 22.98325 31 ft 22 kts 104°
2026-05-04 13:13 40.51873 22.98526 31 ft 22 kts 104°
2026-05-04 13:13 40.51845 22.98671 31 ft 12 kts 108°
2026-05-04 13:14 40.51773 22.98701 31 ft 11 kts 194°
2026-05-04 13:14 40.51703 22.98677 31 ft 7 kts 194°
2026-05-04 13:14 40.51686 22.98624 31 ft 8 kts 284°
2026-05-04 13:14 40.51715 22.98474 30 ft 42 kts 284°
2026-05-04 13:15 40.51842 22.97788 31 ft 110 kts 284°
2026-05-04 13:15 40.52072 22.96564 51 ft 160 kts 283°
2026-05-04 13:15 40.52363 22.95136 662 ft 165 kts 286°
2026-05-04 13:15 40.52691 22.93656 1340 ft 173 kts 287°
2026-05-04 13:16 40.53053 22.92021 1739 ft 202 kts 287°
2026-05-04 13:16 40.53458 22.90160 2340 ft 219 kts 287°
2026-05-04 13:16 40.53891 22.88166 2983 ft 235 kts 288°
2026-05-04 13:16 40.54342 22.86041 3722 ft 245 kts 288°
2026-05-04 13:17 40.54800 22.83860 4579 ft 251 kts 289°
2026-05-04 13:17 40.55259 22.81630 5323 ft 261 kts 289°
2026-05-04 13:17 40.55704 22.79281 6132 ft 268 kts 284°
2026-05-04 13:17 40.55528 22.76807 6938 ft 279 kts 250°
2026-05-04 13:18 40.54368 22.74754 7736 ft 288 kts 219°
2026-05-04 13:18 40.52527 22.73721 8520 ft 292 kts 187°
2026-05-04 13:18 40.50521 22.74030 9266 ft 294 kts 156°
2026-05-04 13:18 40.48696 22.75237 10044 ft 295 kts 155°
2026-05-04 13:19 40.46738 22.76192 10513 ft 308 kts 160°
2026-05-04 13:19 40.45347 22.76857 10687 ft 319 kts 156°
2026-05-04 13:19 40.42697 22.78672 11337 ft 327 kts 144°
2026-05-04 13:19 40.40885 22.80462 11960 ft 328 kts 136°
2026-05-04 13:20 40.39267 22.82582 12537 ft 329 kts 128°
2026-05-04 13:20 40.37877 22.84924 13131 ft 330 kts 125°
2026-05-04 13:20 40.36211 22.87032 13729 ft 335 kts 137°
2026-05-04 13:20 40.34433 22.89034 14227 ft 338 kts 136°
2026-05-04 13:21 40.32666 22.91079 14741 ft 340 kts 136°
2026-05-04 13:21 40.30894 22.93148 15235 ft 342 kts 136°
2026-05-04 13:21 40.29118 22.95231 15964 ft 343 kts 136°
2026-05-04 13:21 40.27343 22.97320 16668 ft 346 kts 136°
2026-05-04 13:22 40.25544 22.99437 17351 ft 349 kts 137°
2026-05-04 13:22 40.24348 23.00846 17803 ft 350 kts 137°
2026-05-04 13:22 40.21914 23.03711 18609 ft 354 kts 137°
2026-05-04 13:22 40.20698 23.05141 18949 ft 356 kts 137°
2026-05-04 13:23 40.18846 23.07317 19460 ft 358 kts 137°
2026-05-04 13:23 40.16379 23.10213 20125 ft 361 kts 137°
2026-05-04 13:23 40.15111 23.11700 20452 ft 363 kts 136°
2026-05-04 13:23 40.13218 23.13919 20927 ft 366 kts 136°
2026-05-04 13:24 40.11213 23.15973 21401 ft 370 kts 149°
2026-05-04 13:24 40.08837 23.17289 21929 ft 372 kts 156°
2026-05-04 13:24 40.06426 23.18531 22342 ft 375 kts 157°
2026-05-04 13:25 40.01562 23.20976 23231 ft 379 kts 157°
2026-05-04 13:25 39.99085 23.22202 23647 ft 382 kts 158°
2026-05-04 13:25 39.96595 23.23429 23974 ft 384 kts 158°
2026-05-04 13:25 39.94082 23.24665 24299 ft 386 kts 158°
2026-05-04 13:26 39.91556 23.25906 24612 ft 389 kts 158°
2026-05-04 13:26 39.89013 23.27155 24913 ft 391 kts 158°
2026-05-04 13:26 39.86456 23.28409 25217 ft 393 kts 158°
2026-05-04 13:26 39.83898 23.29663 25507 ft 396 kts 158°
2026-05-04 13:27 39.81313 23.30930 25804 ft 398 kts 158°
2026-05-04 13:27 39.78717 23.32201 26079 ft 400 kts 158°
2026-05-04 13:27 39.76133 23.33464 26316 ft 403 kts 158°
2026-05-04 13:27 39.73481 23.34759 26502 ft 408 kts 158°
2026-05-04 13:28 39.70821 23.36057 26821 ft 409 kts 158°
2026-05-04 13:28 39.68147 23.37360 27064 ft 412 kts 158°
2026-05-04 13:28 39.65455 23.38671 27332 ft 414 kts 158°
2026-05-04 13:28 39.62752 23.39986 27586 ft 416 kts 158°
2026-05-04 13:29 39.60042 23.41303 27811 ft 418 kts 158°
2026-05-04 13:29 39.57310 23.42630 28069 ft 420 kts 158°
2026-05-04 13:29 39.54564 23.43963 28399 ft 419 kts 158°
2026-05-04 13:29 39.51838 23.45284 28690 ft 420 kts 158°
2026-05-04 13:30 39.46311 23.47961 29027 ft 425 kts 158°
2026-05-04 13:30 39.43536 23.49303 29209 ft 427 kts 158°
2026-05-04 13:30 39.40746 23.50655 29409 ft 428 kts 158°
2026-05-04 13:31 39.37950 23.52009 29609 ft 430 kts 158°
2026-05-04 13:31 39.35145 23.53367 29818 ft 431 kts 158°
2026-05-04 13:31 39.32326 23.54731 30027 ft 433 kts 158°
2026-05-04 13:31 39.29499 23.56095 30187 ft 436 kts 159°
2026-05-04 13:32 39.23767 23.58853 30460 ft 441 kts 159°
2026-05-04 13:32 39.20885 23.60238 30582 ft 444 kts 159°
2026-05-04 13:32 39.18015 23.61578 30752 ft 445 kts 161°
2026-05-04 13:33 39.15056 23.62829 30892 ft 448 kts 161°
2026-05-04 13:33 39.12106 23.64090 31053 ft 449 kts 161°
2026-05-04 13:33 39.09130 23.65368 31199 ft 451 kts 161°
2026-05-04 13:33 39.06142 23.66651 31318 ft 455 kts 161°
2026-05-04 13:34 39.00069 23.69258 31507 ft 461 kts 161°
2026-05-04 13:34 38.97019 23.70565 31632 ft 464 kts 161°
2026-05-04 13:34 38.93947 23.71881 31794 ft 466 kts 161°
2026-05-04 13:35 38.90859 23.73202 31957 ft 467 kts 161°
2026-05-04 13:35 38.84680 23.75843 32335 ft 469 kts 162°
2026-05-04 13:35 38.81584 23.77163 32571 ft 469 kts 162°
2026-05-04 13:36 38.78468 23.78492 32608 ft 474 kts 162°
2026-05-04 13:36 38.75380 23.79807 32823 ft 474 kts 162°
2026-05-04 13:36 38.72239 23.81144 32944 ft 477 kts 162°
2026-05-04 13:36 38.69086 23.82484 33107 ft 479 kts 162°
2026-05-04 13:37 38.65916 23.83830 33267 ft 481 kts 162°
2026-05-04 13:37 38.62735 23.85180 33435 ft 483 kts 162°
2026-05-04 13:37 38.59539 23.86534 33580 ft 486 kts 162°
2026-05-04 13:38 38.53081 23.89268 33865 ft 490 kts 162°
2026-05-04 13:38 38.49834 23.90641 33988 ft 493 kts 162°
2026-05-04 13:38 38.46579 23.92016 34157 ft 494 kts 163°
2026-05-04 13:38 38.43304 23.93398 34316 ft 496 kts 163°
2026-05-04 13:39 38.40015 23.94784 34481 ft 497 kts 163°
2026-05-04 13:39 38.36732 23.96167 34689 ft 497 kts 163°
2026-05-04 13:39 38.33444 23.97550 34802 ft 500 kts 163°
2026-05-04 13:39 38.30136 23.98941 34997 ft 500 kts 163°
2026-05-04 13:40 38.26832 24.00328 35236 ft 499 kts 163°
2026-05-04 13:40 38.23537 24.01711 35479 ft 499 kts 163°
2026-05-04 13:40 38.20244 24.03090 35734 ft 498 kts 163°
2026-05-04 13:40 38.16971 24.04461 35991 ft 497 kts 163°
2026-05-04 13:41 38.13694 24.05831 36231 ft 496 kts 163°
2026-05-04 13:41 38.10410 24.07204 36498 ft 495 kts 163°
2026-05-04 13:41 38.07149 24.08566 36816 ft 492 kts 163°
2026-05-04 13:42 38.00693 24.11257 37156 ft 491 kts 163°
2026-05-04 13:42 37.97456 24.12605 37132 ft 489 kts 163°
2026-05-04 13:42 37.90993 24.15292 37130 ft 489 kts 163°
2026-05-04 13:43 37.84520 24.17978 37132 ft 489 kts 163°
2026-05-04 13:43 37.78047 24.20660 37129 ft 489 kts 163°
2026-05-04 13:44 37.71593 24.23329 37129 ft 489 kts 163°
2026-05-04 13:44 37.65120 24.26001 37110 ft 489 kts 164°
2026-05-04 13:45 37.58885 24.29429 37103 ft 492 kts 143°
2026-05-04 13:45 37.56399 24.32300 37132 ft 491 kts 129°
2026-05-04 13:45 37.54494 24.35835 37100 ft 487 kts 113°
2026-05-04 13:46 37.52149 24.43807 37104 ft 485 kts 106°
2026-05-04 13:46 37.50005 24.51838 37120 ft 484 kts 105°
2026-05-04 13:47 37.47895 24.59887 37119 ft 484 kts 105°
2026-05-04 13:47 37.45783 24.67930 37119 ft 484 kts 105°
2026-05-04 13:48 37.43680 24.75918 37125 ft 484 kts 105°
2026-05-04 13:48 37.41558 24.83951 37130 ft 484 kts 105°
2026-05-04 13:49 37.39429 24.91984 37130 ft 484 kts 105°
2026-05-04 13:49 37.37298 25.00002 37128 ft 484 kts 105°
2026-05-04 13:50 37.35164 25.08014 37121 ft 482 kts 106°
2026-05-04 13:50 37.33029 25.16002 37117 ft 482 kts 106°
2026-05-04 13:51 37.30890 25.23984 37107 ft 482 kts 106°
2026-05-04 13:51 37.28759 25.31912 37101 ft 482 kts 106°
2026-05-04 13:52 37.25158 25.43720 37122 ft 482 kts 109°
2026-05-04 13:53 37.22670 25.51531 37114 ft 482 kts 110°
2026-05-04 13:53 37.20076 25.59297 37109 ft 482 kts 110°
2026-05-04 13:54 37.16202 25.70921 37091 ft 480 kts 110°
2026-05-04 13:55 37.12343 25.82457 37075 ft 481 kts 110°
2026-05-04 13:55 37.08463 25.94011 37073 ft 480 kts 110°
2026-05-04 13:56 37.05861 26.01734 37070 ft 480 kts 110°
2026-05-04 13:57 37.01960 26.13273 37054 ft 480 kts 111°
2026-05-04 13:58 36.96724 26.28724 37068 ft 483 kts 111°
2026-05-04 13:58 36.92796 26.40300 37055 ft 482 kts 111°
2026-05-04 13:59 36.90169 26.48019 37051 ft 482 kts 111°
2026-05-04 14:00 36.86655 26.59684 37064 ft 482 kts 107°
2026-05-04 14:00 36.83294 26.71502 37053 ft 482 kts 108°
2026-05-04 14:01 36.81034 26.79371 37037 ft 481 kts 108°
2026-05-04 14:02 36.77642 26.91138 37046 ft 481 kts 108°
2026-05-04 14:02 36.75373 26.98982 37046 ft 480 kts 108°
2026-05-04 14:03 36.73103 27.06805 37046 ft 480 kts 108°
2026-05-04 14:03 36.70830 27.14620 37046 ft 480 kts 108°
2026-05-04 14:04 36.67397 27.26376 37021 ft 482 kts 108°
2026-05-04 14:04 36.65486 27.32898 37018 ft 483 kts 108°
2026-05-04 14:05 36.61655 27.45930 37014 ft 483 kts 108°
2026-05-04 14:06 36.59343 27.53766 37004 ft 482 kts 109°
2026-05-04 14:06 36.57026 27.61596 37012 ft 482 kts 109°
2026-05-04 14:07 36.54703 27.69424 37006 ft 482 kts 109°
2026-05-04 14:07 36.52767 27.75930 37001 ft 482 kts 109°
2026-05-04 14:08 36.50438 27.83739 36998 ft 482 kts 109°
2026-05-04 14:08 36.47721 27.92821 36992 ft 482 kts 109°
2026-05-04 14:09 36.44605 28.03201 36992 ft 482 kts 109°
2026-05-04 14:10 36.41079 28.14898 36988 ft 481 kts 109°
2026-05-04 14:10 36.38727 28.22676 36979 ft 481 kts 109°
2026-05-04 14:11 36.36373 28.30440 36981 ft 481 kts 109°
2026-05-04 14:11 36.32823 28.42103 36960 ft 484 kts 110°
2026-05-04 14:12 36.30432 28.49932 36951 ft 484 kts 110°
2026-05-04 14:13 36.26866 28.61573 36942 ft 484 kts 110°
2026-05-04 14:13 36.24452 28.69421 36943 ft 485 kts 110°
2026-05-04 14:14 36.22069 28.77154 36929 ft 483 kts 110°
2026-05-04 14:14 36.18459 28.88823 36919 ft 484 kts 110°
2026-05-04 14:15 36.13624 29.04384 36900 ft 485 kts 111°
2026-05-04 14:16 36.09989 29.16023 36883 ft 485 kts 111°
2026-05-04 14:17 36.06335 29.27676 36865 ft 486 kts 111°
2026-05-04 14:18 36.02657 29.39363 36864 ft 486 kts 111°
2026-05-04 14:19 35.97738 29.54917 36878 ft 488 kts 112°
2026-05-04 14:19 35.95261 29.62720 36849 ft 488 kts 111°
2026-05-04 14:20 35.92774 29.70532 36869 ft 489 kts 112°
2026-05-04 14:20 35.90285 29.78328 36846 ft 490 kts 112°
2026-05-04 14:21 35.86549 29.89994 36838 ft 485 kts 112°
2026-05-04 14:21 35.84070 29.97707 36846 ft 485 kts 112°
2026-05-04 14:22 35.82025 30.05625 36866 ft 486 kts 107°
2026-05-04 14:22 35.80056 30.13513 36838 ft 485 kts 108°
2026-05-04 14:23 35.77028 30.25425 36844 ft 486 kts 108°
2026-05-04 14:24 35.75006 30.33343 36842 ft 486 kts 108°
2026-05-04 14:24 35.72974 30.41273 36843 ft 486 kts 108°
2026-05-04 14:25 35.70339 30.48802 36851 ft 481 kts 128°
2026-05-04 14:25 35.66675 30.55701 36687 ft 481 kts 123°
2026-05-04 14:25 35.64935 30.59237 35802 ft 486 kts 123°
2026-05-04 14:26 35.63175 30.62822 34954 ft 491 kts 122°
2026-05-04 14:26 35.61404 30.66423 34232 ft 493 kts 122°
2026-05-04 14:26 35.59627 30.70032 33458 ft 494 kts 122°
2026-05-04 14:26 35.57845 30.73648 32559 ft 496 kts 122°
2026-05-04 14:27 35.56056 30.77275 31655 ft 497 kts 121°
2026-05-04 14:27 35.54279 30.80934 30731 ft 499 kts 120°
2026-05-04 14:27 35.52552 30.84567 30157 ft 492 kts 119°
2026-05-04 14:27 35.50829 30.88170 29558 ft 485 kts 119°
2026-05-04 14:28 35.49129 30.91717 28954 ft 478 kts 119°
2026-05-04 14:28 35.47472 30.95170 28410 ft 472 kts 120°
2026-05-04 14:28 35.45821 30.98607 27864 ft 466 kts 120°
2026-05-04 14:28 35.44171 31.02039 26888 ft 469 kts 120°
2026-05-04 14:29 35.40805 31.09032 24794 ft 481 kts 120°
2026-05-04 14:29 35.37354 31.16181 22673 ft 489 kts 121°
2026-05-04 14:30 35.35631 31.19748 21874 ft 484 kts 121°
2026-05-04 14:30 35.33923 31.23278 21103 ft 480 kts 121°
2026-05-04 14:30 35.30565 31.30212 20213 ft 458 kts 121°
2026-05-04 14:31 35.28969 31.33500 20149 ft 441 kts 121°
2026-05-04 14:31 35.25913 31.39789 19483 ft 425 kts 122°
2026-05-04 14:32 35.22919 31.45941 18612 ft 418 kts 122°
2026-05-04 14:32 35.21437 31.48982 18177 ft 415 kts 122°
2026-05-04 14:32 35.19966 31.51998 17705 ft 411 kts 122°
2026-05-04 14:32 35.18505 31.54989 17269 ft 408 kts 122°
2026-05-04 14:33 35.17075 31.57917 16860 ft 403 kts 122°
2026-05-04 14:33 35.15646 31.60839 16354 ft 402 kts 122°
2026-05-04 14:33 35.14217 31.63758 15923 ft 399 kts 122°
2026-05-04 14:33 35.12798 31.66655 15504 ft 395 kts 122°
2026-05-04 14:34 35.11393 31.69521 15108 ft 391 kts 122°
2026-05-04 14:34 35.09999 31.72362 14712 ft 388 kts 122°
2026-05-04 14:34 35.08613 31.75184 14321 ft 385 kts 122°
2026-05-04 14:34 35.07242 31.77973 13931 ft 382 kts 122°
2026-05-04 14:35 35.05880 31.80743 13527 ft 379 kts 122°
2026-05-04 14:35 35.04528 31.83489 13092 ft 376 kts 122°
2026-05-04 14:35 35.03184 31.86215 12697 ft 373 kts 122°
2026-05-04 14:35 35.01856 31.88910 12320 ft 369 kts 122°
2026-05-04 14:36 35.00541 31.91576 11929 ft 365 kts 122°
2026-05-04 14:36 34.99236 31.94218 11549 ft 362 kts 122°
2026-05-04 14:36 34.97943 31.96835 11176 ft 359 kts 122°
2026-05-04 14:36 34.96658 31.99433 10786 ft 356 kts 122°
2026-05-04 14:37 34.95384 32.02009 10424 ft 353 kts 122°
2026-05-04 14:37 34.94130 32.04541 10225 ft 345 kts 122°
2026-05-04 14:37 34.92909 32.07007 10083 ft 335 kts 123°
2026-05-04 14:37 34.91722 32.09402 9956 ft 325 kts 123°
2026-05-04 14:38 34.90567 32.11727 9790 ft 317 kts 123°
2026-05-04 14:38 34.89438 32.13999 9501 ft 313 kts 123°
2026-05-04 14:38 34.88313 32.16264 9175 ft 311 kts 123°
2026-05-04 14:38 34.87196 32.18510 8862 ft 309 kts 123°
2026-05-04 14:39 34.86088 32.20738 8559 ft 306 kts 123°
2026-05-04 14:39 34.84988 32.22949 8265 ft 303 kts 123°
2026-05-04 14:39 34.83912 32.25109 7978 ft 301 kts 122°
2026-05-04 14:40 34.81776 32.29395 7408 ft 296 kts 123°
2026-05-04 14:40 34.80710 32.31532 7106 ft 294 kts 122°
2026-05-04 14:40 34.79634 32.33686 6815 ft 292 kts 122°
2026-05-04 14:40 34.78596 32.35766 6542 ft 291 kts 123°
2026-05-04 14:41 34.77548 32.37862 6229 ft 290 kts 123°
2026-05-04 14:41 34.76508 32.39940 5999 ft 286 kts 123°
2026-05-04 14:41 34.74497 32.43959 5748 ft 270 kts 123°
2026-05-04 14:42 34.72600 32.47747 5478 ft 254 kts 123°
2026-05-04 14:42 34.71690 32.49563 5346 ft 247 kts 123°
2026-05-04 14:42 34.70742 32.51259 5186 ft 240 kts 133°
2026-05-04 14:43 34.69644 32.52784 4929 ft 240 kts 134°
2026-05-04 14:43 34.68533 32.54338 4659 ft 247 kts 133°
2026-05-04 14:43 34.67409 32.55929 4359 ft 250 kts 133°
2026-05-04 14:43 34.66282 32.57541 4074 ft 250 kts 132°
2026-05-04 14:44 34.65160 32.59157 3769 ft 251 kts 131°
2026-05-04 14:44 34.64046 32.60766 3552 ft 246 kts 132°
2026-05-04 14:44 34.62966 32.62331 3438 ft 237 kts 134°
2026-05-04 14:44 34.61921 32.63846 3267 ft 231 kts 134°
2026-05-04 14:45 34.61024 32.65434 3103 ft 229 kts 111°
2026-05-04 14:45 34.60874 32.67307 2932 ft 220 kts 74°
2026-05-04 14:45 34.61543 32.68888 2837 ft 207 kts 39°
2026-05-04 14:45 34.62723 32.69729 2790 ft 191 kts
2026-05-04 14:46 34.63952 32.69620 2788 ft 175 kts 329°
2026-05-04 14:46 34.64860 32.68724 2826 ft 169 kts 307°
2026-05-04 14:46 34.65582 32.67590 2805 ft 167 kts 303°
2026-05-04 14:46 34.66181 32.66426 2636 ft 159 kts 296°
2026-05-04 14:47 34.66663 32.65223 2392 ft 157 kts 290°
2026-05-04 14:47 34.67080 32.64005 2128 ft 154 kts 289°
2026-05-04 14:47 34.67458 32.62799 1904 ft 151 kts 286°
2026-05-04 14:47 34.67816 32.61638 1786 ft 144 kts 289°
2026-05-04 14:48 34.68164 32.60495 1851 ft 145 kts 290°
2026-05-04 14:48 34.68518 32.59326 1673 ft 147 kts 289°
2026-05-04 14:48 34.68869 32.58170 1498 ft 144 kts 289°
2026-05-04 14:48 34.69210 32.57044 1313 ft 139 kts 291°
2026-05-04 14:49 34.69533 32.55985 1172 ft 128 kts 291°
2026-05-04 14:49 34.69837 32.54987 978 ft 125 kts 292°
2026-05-04 14:49 34.70133 32.54009 810 ft 121 kts 293°
2026-05-04 14:49 34.70421 32.53069 608 ft 122 kts 294°
2026-05-04 14:50 34.70727 32.52092 445 ft 124 kts 292°
2026-05-04 14:50 34.71022 32.51094 296 ft 127 kts 293°
2026-05-04 14:50 34.71329 32.50087 135 ft 128 kts 292°
2026-05-04 14:50 34.71631 32.49101 47 ft 107 kts 291°
2026-05-04 14:51 34.71796 32.48556 48 ft 34 kts 291°
2026-05-04 14:51 34.71813 32.48435 47 ft 10 kts 237°
2026-05-04 14:51 34.71741 32.48391 48 ft 14 kts 198°
2026-05-04 14:51 34.71671 32.48406 48 ft 12 kts 123°
2026-05-04 14:52 34.71637 32.48508 48 ft 15 kts 110°
2026-05-04 14:52 34.71597 32.48633 46 ft 15 kts 110°
2026-05-04 14:52 34.71561 32.48753 48 ft 15 kts 110°
2026-05-04 14:52 34.71530 32.48856 48 ft 10 kts 110°
2026-05-04 14:53 34.71484 32.48875 48 ft 9 kts 222°
2026-05-04 14:53 34.71455 32.48799 48 ft 11 kts 245°
2026-05-04 14:53 34.71422 32.48712 48 ft 11 kts 245°
2026-05-04 14:53 34.71400 32.48655 47 ft 8 kts 245°
2026-05-04 14:54 34.71364 32.48610 48 ft 9 kts 187°
2026-05-04 14:54 34.71332 32.48621 47 ft 7 kts 156°
2026-05-04 14:54 34.71306 32.48636 48 ft 4 kts 153°
2026-05-04 14:54 34.71300 32.48639 48 ft 0 kts 155°